Date String (YYYY-MM-DD hh:mm:ss) UTC,Instrument flags,absolute air pressure of the measurement (hPa),sample flow rate (lpm),inlet stack bypass flow (lpm),air temperature of the measurement (°C),ambient temperature measured by the external sensor (°C),aerosol sample conditioner tube jacket temperature (°C),OPC LED temperature (°C),internal box temperature (°C),relative humidity of the measurement (%),span deviation,mass concentration of particles derived from Lorenz-Mie calculation of OPC scattering (μg/m³),mass concentration of particles derived from Lorenz-Mie calculation of OPC scattering (μg/m³),mass concentration of particles derived from Lorenz-Mie calculation of OPC scattering (μg/m³)
DateTimeUTC,F1_M11,P_M11,Q1_M11,Q2_M11,T1_M11,T2_M11,T3_M11,T4_M11,T5_M11,U1_M11,ZSPAN_M11,X0_M11,X2_M11,X1_M11
2023-06-10 17:00:00,SystemResetWarning,0829.8,5.00,000.00,029.3,027.4,000.0,037.9,030.9,26.7,0000.0,0008.58,0004.32,0003.59
2023-06-10 17:01:00,SystemResetWarning,0829.8,4.99,000.00,029.4,027.6,000.0,037.9,030.9,25.7,0000.0,0008.38,0004.32,0003.59
2023-06-10 17:02:00,SystemResetWarning,0829.8,4.99,000.00,029.4,027.7,000.0,037.9,030.9,25.2,0000.0,0008.43,0004.29,0003.59
2023-06-10 17:03:00,SystemResetWarning,0829.8,5.00,000.00,029.4,027.8,000.0,037.9,031.0,24.9,0000.0,0008.07,0004.22,0003.58
2023-06-10 17:04:00,SystemResetWarning,0829.7,5.00,000.00,029.4,027.9,000.0,037.9,031.0,25.3,0000.0,0007.82,0004.16,0003.55
2023-06-10 17:05:00,SystemResetWarning,0829.7,4.99,000.00,029.5,026.9,000.0,037.9,031.1,25.5,0000.0,0007.81,0004.18,0003.55
2023-06-10 17:06:00,SystemResetWarning,0829.7,5.01,000.00,029.4,025.5,000.0,037.9,031.0,25.7,0000.0,0007.76,0004.17,0003.54
2023-06-10 17:07:00,SystemResetWarning,0829.7,5.01,000.00,029.4,025.6,000.0,037.8,031.0,25.7,0000.0,0008.15,0004.14,0003.54
2023-06-10 17:08:00,SystemResetWarning,0829.7,5.00,000.00,029.3,025.9,000.0,037.8,030.7,25.6,0000.0,0008.37,0004.14,0003.52
2023-06-10 17:09:00,SystemResetWarning,0829.7,4.99,000.00,029.3,026.2,000.0,037.8,030.7,27.0,0000.0,0008.42,0004.16,0003.52
2023-06-10 17:10:00,SystemResetWarning,0829.7,5.00,000.00,029.3,026.5,000.0,037.8,030.8,26.3,0000.0,0008.71,0004.16,0003.51
2023-06-10 17:11:00,SystemResetWarning,0829.7,5.00,000.00,029.3,026.8,000.0,037.8,030.8,26.2,0000.0,0008.56,0004.10,0003.50
2023-06-10 17:12:00,SystemResetWarning,0829.7,5.00,000.00,029.3,027.1,000.0,037.8,030.8,26.4,0000.0,0008.45,0004.08,0003.50
2023-06-10 17:13:00,SystemResetWarning,0829.7,5.00,000.00,029.3,027.3,000.0,037.8,030.9,26.9,0000.0,0008.31,0004.07,0003.50
2023-06-10 17:14:00,SystemResetWarning,0829.7,5.00,000.00,029.3,027.5,000.0,037.8,030.9,27.2,0000.0,0008.78,0004.15,0003.51
2023-06-10 17:15:00,SystemResetWarning,0829.7,5.00,000.00,029.3,027.7,000.0,037.9,030.9,28.0,0000.0,0009.14,0004.24,0003.53
2023-06-10 17:16:00,SystemResetWarning,0829.7,5.00,000.00,029.4,027.8,000.0,037.9,031.0,28.3,0000.0,0009.15,0004.24,0003.53
2023-06-10 17:17:00,SystemResetWarning,0829.7,5.00,000.00,029.4,027.9,000.0,037.9,031.0,29.3,0000.0,0009.19,0004.23,0003.52
2023-06-10 17:18:00,SystemResetWarning,0829.7,4.99,000.00,029.4,027.9,000.0,037.9,031.1,27.3,0000.0,0008.99,0004.25,0003.53
2023-06-10 17:19:00,SystemResetWarning,0829.7,4.98,000.00,029.4,026.6,000.0,037.9,031.1,26.3,0000.0,0008.69,0004.26,0003.54
2023-06-10 17:20:00,SystemResetWarning,0829.7,5.02,000.00,029.4,025.5,000.0,037.8,031.1,27.4,0000.0,0008.75,0004.28,0003.54
2023-06-10 17:21:00,SystemResetWarning,0829.7,5.01,000.00,029.4,025.7,000.0,037.8,030.9,27.2,0000.0,0008.65,0004.28,0003.55
2023-06-10 17:22:00,SystemResetWarning,0829.7,4.99,000.00,029.3,025.9,000.0,037.8,030.7,26.6,0000.0,0008.47,0004.29,0003.55
2023-06-10 17:23:00,SystemResetWarning,0829.7,5.00,000.00,029.3,026.3,000.0,037.8,030.7,27.7,0000.0,0008.50,0004.29,0003.54
2023-06-10 17:24:00,SystemResetWarning,0829.7,5.00,000.00,029.3,026.6,000.0,037.8,030.8,27.0,0000.0,0009.12,0004.34,0003.55
2023-06-10 17:25:00,SystemResetWarning,0829.7,5.01,000.00,029.3,026.9,000.0,037.8,030.8,26.9,0000.0,0008.93,0004.30,0003.56
2023-06-10 17:26:00,SystemResetWarning,0829.7,5.01,000.00,029.3,027.2,000.0,037.8,030.9,27.9,0000.0,0009.64,0004.24,0003.55
2023-06-10 17:27:00,SystemResetWarning,0829.7,4.99,000.00,029.3,027.4,000.0,037.8,030.9,25.1,0000.0,0010.20,0004.25,0003.54
2023-06-10 17:28:00,SystemResetWarning,0829.7,5.00,000.00,029.3,027.6,000.0,037.8,030.9,26.7,0000.0,0010.23,0004.27,0003.55
2023-06-10 17:29:00,SystemResetWarning,0829.6,5.00,000.00,029.4,027.7,000.0,037.9,031.0,27.9,0000.0,0010.18,0004.25,0003.55
2023-06-10 17:30:00,SystemResetWarning,0829.7,5.00,000.00,029.4,027.9,000.0,037.9,031.0,26.9,0000.0,0010.09,0004.23,0003.56
2023-06-10 17:31:00,SystemResetWarning,0829.7,4.99,000.00,029.4,027.0,000.0,037.9,031.1,28.0,0000.0,0010.26,0004.23,0003.57
2023-06-10 17:32:00,SystemResetWarning,0829.7,5.00,000.00,029.4,025.6,000.0,037.8,031.0,28.5,0000.0,0010.37,0004.24,0003.56
2023-06-10 17:33:00,SystemResetWarning,0829.6,5.02,000.00,029.4,025.5,000.0,037.8,030.9,28.5,0000.0,0010.42,0004.24,0003.55
2023-06-10 17:34:00,SystemResetWarning,0829.6,5.00,000.00,029.3,025.8,000.0,037.8,030.7,27.5,0000.0,0010.94,0004.22,0003.55
2023-06-10 17:35:00,SystemResetWarning,0829.6,5.00,000.00,029.3,026.1,000.0,037.8,030.7,27.0,0000.0,0011.04,0004.22,0003.56
2023-06-10 17:36:00,SystemResetWarning,0829.7,5.00,000.00,029.3,026.5,000.0,037.8,030.7,28.3,0000.0,0010.85,0004.22,0003.56
2023-06-10 17:37:00,SystemResetWarning,0829.6,5.01,000.00,029.3,026.8,000.0,037.8,030.8,27.8,0000.0,0010.56,0004.28,0003.57
2023-06-10 17:38:00,SystemResetWarning,0829.6,5.01,000.00,029.3,027.1,000.0,037.8,030.8,27.3,0000.0,0009.92,0004.31,0003.58
2023-06-10 17:39:00,SystemResetWarning,0829.6,5.00,000.00,029.3,027.3,000.0,037.8,030.9,25.1,0000.0,0009.88,0004.31,0003.58
2023-06-10 17:40:00,SystemResetWarning,0829.6,4.99,000.00,029.3,027.5,000.0,037.8,030.9,23.9,0000.0,0009.87,0004.33,0003.57
2023-06-10 17:41:00,SystemResetWarning,0829.7,4.99,000.00,029.3,027.7,000.0,037.8,031.0,24.2,0000.0,0009.94,0004.34,0003.54
2023-06-10 17:42:00,SystemResetWarning,0829.6,5.00,000.00,029.4,027.8,000.0,037.8,031.0,24.2,0000.0,0009.71,0004.29,0003.51
2023-06-10 17:43:00,SystemResetWarning,0829.7,5.00,000.00,029.4,027.4,000.0,037.8,031.1,25.2,0000.0,0009.56,0004.28,0003.50
2023-06-10 17:44:00,SystemResetWarning,0829.6,5.00,000.00,029.4,025.7,000.0,037.8,031.0,25.5,0000.0,0009.59,0004.26,0003.49
2023-06-10 17:45:00,SystemResetWarning,0829.6,5.01,000.00,029.4,025.3,000.0,037.8,031.0,26.8,0000.0,0009.11,0004.26,0003.48
2023-06-10 17:46:00,SystemResetWarning,0829.7,5.01,000.00,029.3,025.5,000.0,037.8,030.8,26.6,0000.0,0008.52,0004.24,0003.45
2023-06-10 17:47:00,SystemResetWarning,0829.7,5.00,000.00,029.3,025.9,000.0,037.8,030.7,27.0,0000.0,0008.40,0004.20,0003.42
2023-06-10 17:48:00,SystemResetWarning,0829.7,5.00,000.00,029.2,026.2,000.0,037.8,030.7,27.4,0000.0,0007.96,0004.14,0003.39
2023-06-10 17:49:00,SystemResetWarning,0829.7,5.00,000.00,029.2,026.6,000.0,037.8,030.7,26.6,0000.0,0007.75,0004.09,0003.38
2023-06-10 17:50:00,SystemResetWarning,0829.7,5.00,000.00,029.2,026.9,000.0,037.8,030.8,26.2,0000.0,0008.38,0004.05,0003.37
2023-06-10 17:51:00,SystemResetWarning,0829.7,4.99,000.00,029.2,027.1,000.0,037.8,030.8,26.1,0000.0,0008.35,0004.02,0003.37
2023-06-10 17:52:00,SystemResetWarning,0829.7,5.00,000.00,029.3,027.3,000.0,037.8,030.9,26.5,0000.0,0008.27,0003.98,0003.36
2023-06-10 17:53:00,SystemResetWarning,0829.7,5.00,000.00,029.3,027.5,000.0,037.8,030.9,27.3,0000.0,0008.29,0003.95,0003.35
2023-06-10 17:54:00,SystemResetWarning,0829.7,5.00,000.00,029.3,027.7,000.0,037.8,030.9,26.4,0000.0,0008.19,0003.92,0003.35
2023-06-10 17:55:00,SystemResetWarning,0829.7,4.99,000.00,029.3,027.8,000.0,037.8,030.9,26.2,0000.0,0008.11,0003.90,0003.33
2023-06-10 17:56:00,SystemResetWarning,0829.7,5.00,000.00,029.3,027.9,000.0,037.8,031.0,26.2,0000.0,0008.09,0003.90,0003.30
2023-06-10 17:57:00,SystemResetWarning,0829.7,4.99,000.00,029.4,027.2,000.0,037.8,031.0,25.5,0000.0,0008.27,0003.87,0003.28
2023-06-10 17:58:00,SystemResetWarning,0829.7,5.00,000.00,029.4,025.6,000.0,037.7,031.0,25.5,0000.0,0008.77,0003.86,0003.27
2023-06-10 17:59:00,SystemResetWarning,0829.7,5.01,000.00,029.4,025.3,000.0,037.7,030.9,26.1,0000.0,0009.33,0003.85,0003.25
